EZY195 EGKK-EGCC

Flight info

Callsign EZY195
Flight time N/A
Altitude 24000
Route LAM N57 WELIN DCT TIMPO DCT ELVOS DCT TNT
Aircraft A20N/M-SDE2E3FGHIRWXY/LB1

Departure

Time 2026-05-06 18:46
Airport London Gatwick Airport (EGKK)

Arrival

Time N/A
Airport Manchester Airport (EGCC)
Time Latitude Longitude Altitude Speed Heading
2026-05-06 18:27 51.15311 -0.17990 209 ft 0 kts 348°
2026-05-06 18:34 51.15308 -0.17990 209 ft 3 kts 335°
2026-05-06 18:34 51.15291 -0.17976 218 ft 3 kts 332°
2026-05-06 18:35 51.15275 -0.17962 212 ft 3 kts 332°
2026-05-06 18:35 51.15260 -0.17946 216 ft 3 kts 318°
2026-05-06 18:35 51.15248 -0.17925 218 ft 3 kts 307°
2026-05-06 18:35 51.15240 -0.17902 215 ft 2 kts 257°
2026-05-06 18:36 51.15240 -0.17901 215 ft 0 kts 253°
2026-05-06 18:37 51.15232 -0.17934 218 ft 6 kts 246°
2026-05-06 18:38 51.15220 -0.18006 212 ft 7 kts 259°
2026-05-06 18:38 51.15209 -0.18094 209 ft 9 kts 259°
2026-05-06 18:38 51.15196 -0.18195 212 ft 10 kts 257°
2026-05-06 18:38 51.15183 -0.18311 212 ft 11 kts 260°
2026-05-06 18:39 51.15168 -0.18442 215 ft 13 kts 258°
2026-05-06 18:39 51.15148 -0.18586 208 ft 14 kts 259°
2026-05-06 18:39 51.15126 -0.18747 217 ft 16 kts 256°
2026-05-06 18:40 51.15078 -0.19107 211 ft 18 kts 260°
2026-05-06 18:40 51.15045 -0.19302 208 ft 19 kts 251°
2026-05-06 18:40 51.15021 -0.19486 209 ft 0 kts 259°
2026-05-06 18:40 51.15018 -0.19509 213 ft 8 kts 260°
2026-05-06 18:41 51.15006 -0.19625 208 ft 12 kts 259°
2026-05-06 18:41 51.14989 -0.19756 207 ft 13 kts 257°
2026-05-06 18:41 51.14968 -0.19899 215 ft 14 kts 255°
2026-05-06 18:41 51.14947 -0.20058 207 ft 16 kts 258°
2026-05-06 18:42 51.14923 -0.20235 211 ft 17 kts 258°
2026-05-06 18:42 51.14898 -0.20424 215 ft 18 kts 258°
2026-05-06 18:42 51.14870 -0.20628 214 ft 19 kts 258°
2026-05-06 18:42 51.14839 -0.20845 213 ft 21 kts 258°
2026-05-06 18:43 51.14812 -0.21047 214 ft 19 kts 258°
2026-05-06 18:43 51.14774 -0.21257 205 ft 20 kts 259°
2026-05-06 18:43 51.14675 -0.21337 204 ft 16 kts 175°
2026-05-06 18:43 51.14579 -0.21304 206 ft 13 kts 157°
2026-05-06 18:44 51.14520 -0.21207 209 ft 13 kts 107°
2026-05-06 18:44 51.14518 -0.21157 208 ft 0 kts 84°
2026-05-06 18:45 51.14518 -0.21156 208 ft 3 kts 83°
2026-05-06 18:45 51.14581 -0.20697 210 ft 67 kts 77°
2026-05-06 18:45 51.14742 -0.19512 224 ft 144 kts 77°
2026-05-06 18:46 51.14925 -0.18052 595 ft 116 kts 77°
2026-05-06 18:46 51.15080 -0.16670 1022 ft 132 kts 76°
2026-05-06 18:46 51.15241 -0.15063 1678 ft 148 kts 71°
2026-05-06 18:46 51.15424 -0.13563 2061 ft 123 kts 72°
2026-05-06 18:47 51.15622 -0.12334 1916 ft 115 kts 63°
2026-05-06 18:47 51.15944 -0.10880 2177 ft 166 kts 67°
2026-05-06 18:47 51.16380 -0.08954 2870 ft 195 kts 66°
2026-05-06 18:47 51.16903 -0.06791 3729 ft 224 kts 65°
2026-05-06 18:48 51.17531 -0.04355 4677 ft 250 kts 65°
2026-05-06 18:48 51.18251 -0.01706 5761 ft 270 kts 63°
2026-05-06 18:48 51.19057 0.01109 6900 ft 287 kts 63°
2026-05-06 18:48 51.19951 0.04088 8144 ft 302 kts 62°
2026-05-06 18:49 51.20909 0.07142 9474 ft 313 kts 60°
2026-05-06 18:49 51.21935 0.10277 10787 ft 323 kts 59°
2026-05-06 18:49 51.23018 0.13462 12131 ft 330 kts 58°
2026-05-06 18:49 51.24171 0.16543 13847 ft 320 kts 52°
2026-05-06 18:50 51.25860 0.18898 14698 ft 333 kts 22°
2026-05-06 18:50 51.28170 0.19593 15307 ft 351 kts 354°
2026-05-06 18:50 51.30630 0.18885 15903 ft 369 kts 342°
2026-05-06 18:50 51.33133 0.17601 16566 ft 386 kts 339°
2026-05-06 18:51 51.35715 0.16156 17289 ft 400 kts 338°
2026-05-06 18:51 51.38369 0.14612 18061 ft 411 kts 338°
2026-05-06 18:51 51.41071 0.12972 18800 ft 419 kts 336°
2026-05-06 18:51 51.43617 0.10671 19504 ft 424 kts 322°
2026-05-06 18:52 51.46014 0.07883 20368 ft 426 kts 323°
2026-05-06 18:52 51.48449 0.05167 21287 ft 427 kts 324°
2026-05-06 18:52 51.50897 0.02478 22245 ft 427 kts 323°
2026-05-06 18:52 51.53308 -0.00302 23241 ft 425 kts 321°
2026-05-06 18:53 51.55677 -0.03136 24106 ft 424 kts 321°
2026-05-06 18:53 51.58024 -0.05994 24916 ft 422 kts 320°
2026-05-06 18:53 51.60342 -0.08868 25713 ft 420 kts 320°
2026-05-06 18:53 51.62636 -0.11766 26516 ft 417 kts 319°
2026-05-06 18:54 51.64897 -0.14677 27306 ft 416 kts 319°
2026-05-06 18:54 51.67178 -0.17642 27501 ft 429 kts 320°
2026-05-06 18:54 51.69622 -0.20554 27528 ft 445 kts 323°
2026-05-06 18:54 51.72251 -0.23360 27552 ft 461 kts 326°
2026-05-06 18:55 51.74963 -0.26151 28059 ft 461 kts 325°
2026-05-06 18:55 51.77628 -0.28901 28940 ft 430 kts 325°
2026-05-06 18:55 51.80033 -0.31363 29647 ft 394 kts 324°
2026-05-06 18:55 51.82254 -0.33617 30294 ft 362 kts 324°
2026-05-06 18:56 51.84382 -0.35767 30837 ft 361 kts 324°
2026-05-06 18:56 51.86483 -0.37970 31399 ft 358 kts 320°
2026-05-06 18:56 51.88428 -0.40415 32050 ft 352 kts 319°
2026-05-06 18:56 51.90407 -0.42728 32679 ft 349 kts 322°
2026-05-06 18:57 51.92423 -0.44881 33274 ft 345 kts 324°
2026-05-06 18:57 51.94385 -0.47048 33898 ft 339 kts 321°
2026-05-06 18:57 51.96299 -0.49256 34393 ft 335 kts 321°
2026-05-06 18:57 51.98193 -0.51480 34554 ft 336 kts 320°
2026-05-06 18:58 52.00095 -0.53741 34597 ft 342 kts 320°
2026-05-06 18:58 52.01969 -0.55990 34587 ft 329 kts 320°
2026-05-06 18:58 52.03767 -0.58144 34613 ft 313 kts 320°
2026-05-06 18:58 52.05524 -0.60139 34754 ft 309 kts 322°
2026-05-06 18:59 52.07339 -0.62080 34910 ft 315 kts 323°
2026-05-06 18:59 52.11138 -0.66088 34897 ft 337 kts 323°
2026-05-06 18:59 52.13104 -0.68138 34785 ft 337 kts 324°
2026-05-06 19:00 52.15051 -0.70176 34592 ft 329 kts 323°
2026-05-06 19:00 52.16932 -0.72233 34396 ft 323 kts 322°
2026-05-06 19:00 52.18746 -0.74477 32173 ft 350 kts 303°
2026-05-06 19:00 52.19477 -0.76537 27982 ft 232 kts 348°
2026-05-06 19:01 52.20884 -0.76319 16408 ft 119 kts 102°
2026-05-06 19:01 52.21818 -0.75547 9430 ft 197 kts 23°
2026-05-06 19:01 52.23026 -0.74680 5492 ft 178 kts 16°
2026-05-06 19:01 52.24123 -0.74238 1951 ft 128 kts 319°
2026-05-06 19:02 52.24896 -0.74403 1088 ft 187 kts 353°
2026-05-06 19:02 52.26031 -0.75115 617 ft 181 kts 339°
2026-05-06 19:02 52.27183 -0.76093 1033 ft 216 kts 331°
2026-05-06 19:02 52.28429 -0.78761 976 ft 230 kts 290°
2026-05-06 19:03 52.28498 -0.79141 962 ft 229 kts 286°